• In Uzbekistan
  • List of Countries
  • For 7 days
  • Water Temperature
  • Weather Map
  • Weather Widgets
  • user-avatar
    Login

    Hourly Weather Melbourne

    Today, 20 November, Wednesday

    Time Temperature Precipitation Wind Pressure Humidity
    00:00 +11°C° 0 mm 1 mps 760 mmHg 83%
    01:00 +11°C° 0 mm 1 mps 760 mmHg 84%
    02:00 +11°C° 0 mm 1 mps 759 mmHg 84%
    03:00 +10°C° 0 mm 1 mps 759 mmHg 85%
    04:00 +10°C° 0 mm 1 mps 758 mmHg 86%
    05:00 +11°C° 0 mm 1 mps 758 mmHg 81%
    06:00 +13°C° 0 mm 1 mps 758 mmHg 75%
    07:00 +14°C° 0 mm 1 mps 759 mmHg 70%
    08:00 +19°C° 0 mm 1 mps 758 mmHg 55%
    09:00 +23°C° 0 mm 1 mps 758 mmHg 40%
    10:00 +26°C° 0 mm 0 mps 758 mmHg 26%
    11:00 +29°C° 0 mm 1 mps 758 mmHg 24%
    12:00 +31°C° 0 mm 2 mps 758 mmHg 22%
    13:00 +34°C° 0 mm 2 mps 757 mmHg 20%
    14:00 +35°C° 0 mm 2 mps 757 mmHg 20%
    15:00 +35°C° 0 mm 3 mps 756 mmHg 21%
    16:00 +36°C° 0 mm 3 mps 755 mmHg 21%
    17:00 +34°C° 0 mm 3 mps 755 mmHg 24%
    18:00 +32°C° 0 mm 4 mps 754 mmHg 28%
    19:00 +30°C° 0 mm 5 mps 754 mmHg 31%
    20:00 +29°C° 0 mm 5 mps 754 mmHg 29%
    21:00 +29°C° 0 mm 5 mps 754 mmHg 27%
    22:00 +28°C° 0 mm 5 mps 753 mmHg 25%
    23:00 +28°C° 0 mm 6 mps 753 mmHg 25%

    Tomorrow, 21 November, Thursday

    Time Temperature Precipitation Wind Pressure Humidity
    00:00 +28°C° 0 mm 6 mps 753 mmHg 26%
    01:00 +28°C° 0 mm 6 mps 753 mmHg 27%
    02:00 +28°C° 0 mm 6 mps 752 mmHg 26%
    03:00 +28°C° 0 mm 6 mps 752 mmHg 25%
    04:00 +28°C° 0 mm 6 mps 751 mmHg 24%
    05:00 +28°C° 0 mm 7 mps 751 mmHg 25%
    06:00 +28°C° 0 mm 8 mps 752 mmHg 27%
    07:00 +29°C° 0 mm 9 mps 752 mmHg 28%
    08:00 +31°C° 0 mm 9 mps 751 mmHg 27%
    09:00 +33°C° 0 mm 10 mps 751 mmHg 27%
    10:00 +34°C° 0 mm 10 mps 750 mmHg 26%
    11:00 +38°C° 0 mm 10 mps 749 mmHg 21%
    12:00 +42°C° 0 mm 10 mps 748 mmHg 17%
    13:00 +44°C° 0 mm 10 mps 748 mmHg 12%
    14:00 +42°C° 0 mm 10 mps 748 mmHg 17%
    15:00 +38°C° 0 mm 11 mps 749 mmHg 21%
    16:00 +36°C° 0 mm 11 mps 749 mmHg 26%
    17:00 +29°C° 0.1 mm 9 mps 751 mmHg 40%
    18:00 +23°C° 0.1 mm 7 mps 753 mmHg 54%
    19:00 +19°C° 0.1 mm 5 mps 754 mmHg 68%
    20:00 +17°C° 0 mm 5 mps 755 mmHg 67%
    21:00 +17°C° 0 mm 5 mps 756 mmHg 67%
    22:00 +17°C° 0 mm 4 mps 757 mmHg 66%
    23:00 +15°C° 0 mm 4 mps 757 mmHg 68%

    Day after tomorrow, 22 November, Friday

    Time Temperature Precipitation Wind Pressure Humidity
    00:00 +14°C° 0 mm 4 mps 757 mmHg 70%
    01:00 +13°C° 0 mm 4 mps 758 mmHg 71%
    02:00 +13°C° 0 mm 3 mps 758 mmHg 71%
    03:00 +13°C° 0 mm 3 mps 758 mmHg 71%
    04:00 +12°C° 0 mm 3 mps 758 mmHg 71%
    05:00 +13°C° 0 mm 3 mps 759 mmHg 68%
    06:00 +13°C° 0 mm 3 mps 759 mmHg 65%
    07:00 +14°C° 0 mm 3 mps 760 mmHg 62%
    08:00 +16°C° 0 mm 3 mps 760 mmHg 57%
    09:00 +17°C° 0 mm 3 mps 760 mmHg 51%
    10:00 +19°C° 0 mm 3 mps 760 mmHg 45%
    11:00 +19°C° 0 mm 4 mps 760 mmHg 42%
    12:00 +20°C° 0 mm 4 mps 759 mmHg 39%
    13:00 +21°C° 0 mm 4 mps 759 mmHg 37%
    14:00 +21°C° 0 mm 4 mps 759 mmHg 36%
    15:00 +21°C° 0 mm 4 mps 759 mmHg 36%
    16:00 +21°C° 0 mm 4 mps 759 mmHg 36%
    17:00 +19°C° 0 mm 4 mps 759 mmHg 43%
    18:00 +17°C° 0 mm 4 mps 760 mmHg 51%
    19:00 +15°C° 0 mm 4 mps 760 mmHg 59%
    20:00 +14°C° 0 mm 3 mps 760 mmHg 63%
    21:00 +13°C° 0 mm 3 mps 761 mmHg 67%
    22:00 +13°C° 0 mm 2 mps 761 mmHg 71%
    23:00 +13°C° 0 mm 2 mps 761 mmHg 72%

    23 November, Saturday

    Time Temperature Precipitation Wind Pressure Humidity
    00:00 +12°C° 0 mm 1 mps 761 mmHg 74%
    01:00 +12°C° 0 mm 1 mps 761 mmHg 75%
    02:00 +12°C° 0 mm 1 mps 761 mmHg 77%
    03:00 +12°C° 0 mm 1 mps 761 mmHg 78%
    04:00 +11°C° 0 mm 1 mps 760 mmHg 79%
    05:00 +12°C° 0 mm 1 mps 761 mmHg 75%
    06:00 +13°C° 0 mm 2 mps 761 mmHg 72%
    07:00 +14°C° 0 mm 2 mps 761 mmHg 69%
    08:00 +16°C° 0 mm 2 mps 761 mmHg 60%
    09:00 +18°C° 0 mm 2 mps 761 mmHg 51%
    10:00 +20°C° 0 mm 2 mps 761 mmHg 42%
    11:00 +23°C° 0 mm 2 mps 760 mmHg 38%
    12:00 +24°C° 0 mm 2 mps 760 mmHg 34%
    13:00 +26°C° 0 mm 2 mps 760 mmHg 30%
    14:00 +23°C° 0 mm 4 mps 760 mmHg 38%
    15:00 +22°C° 0 mm 5 mps 760 mmHg 45%
    16:00 +21°C° 0 mm 6 mps 760 mmHg 52%
    17:00 +19°C° 0 mm 6 mps 761 mmHg 56%
    18:00 +17°C° 0 mm 5 mps 762 mmHg 61%
    19:00 +15°C° 0 mm 5 mps 762 mmHg 65%
    20:00 +14°C° 0 mm 4 mps 763 mmHg 68%
    21:00 +13°C° 0 mm 3 mps 763 mmHg 70%
    22:00 +12°C° 0 mm 3 mps 764 mmHg 73%
    23:00 +13°C° 0 mm 2 mps 764 mmHg 74%

    24 November, Sunday

    Time Temperature Precipitation Wind Pressure Humidity
    00:00 +12°C° 0 mm 2 mps 763 mmHg 76%
    01:00 +12°C° 0 mm 2 mps 763 mmHg 78%
    02:00 +11°C° 0 mm 1 mps 763 mmHg 79%
    03:00 +11°C° 0 mm 1 mps 763 mmHg 80%
    04:00 +11°C° 0 mm 1 mps 763 mmHg 80%
    05:00 +12°C° 0 mm 1 mps 763 mmHg 76%
    06:00 +13°C° 0 mm 1 mps 763 mmHg 71%
    07:00 +14°C° 0 mm 1 mps 763 mmHg 67%
    08:00 +18°C° 0 mm 1 mps 762 mmHg 56%
    09:00 +20°C° 0 mm 1 mps 762 mmHg 46%
    10:00 +23°C° 0 mm 1 mps 762 mmHg 36%
    11:00 +24°C° 0 mm 2 mps 761 mmHg 33%
    12:00 +25°C° 0 mm 2 mps 761 mmHg 30%
    13:00 +26°C° 0 mm 3 mps 760 mmHg 27%
    14:00 +26°C° 0 mm 3 mps 760 mmHg 27%
    15:00 +26°C° 0 mm 3 mps 759 mmHg 28%
    16:00 +26°C° 0 mm 3 mps 759 mmHg 28%
    17:00 +24°C° 0 mm 3 mps 759 mmHg 35%
    18:00 +21°C° 0 mm 3 mps 759 mmHg 42%
    19:00 +19°C° 0 mm 3 mps 759 mmHg 49%
    20:00 +18°C° 0 mm 2 mps 759 mmHg 54%
    21:00 +18°C° 0 mm 1 mps 759 mmHg 60%
    22:00 +15°C° 0 mm 1 mps 759 mmHg 65%
    23:00 +15°C° 0 mm 1 mps 758 mmHg 65%

    25 November, Monday

    Time Temperature Precipitation Wind Pressure Humidity
    00:00 +14°C° 0 mm 1 mps 758 mmHg 65%
    01:00 +14°C° 0 mm 1 mps 757 mmHg 65%
    02:00 +14°C° 0 mm 1 mps 757 mmHg 60%
    03:00 +14°C° 0 mm 2 mps 757 mmHg 56%
    04:00 +15°C° 0 mm 2 mps 756 mmHg 51%
    05:00 +16°C° 0 mm 2 mps 756 mmHg 45%
    06:00 +18°C° 0 mm 3 mps 756 mmHg 39%
    07:00 +20°C° 0 mm 3 mps 756 mmHg 34%
    08:00 +23°C° 0 mm 4 mps 755 mmHg 29%
    09:00 +27°C° 0 mm 5 mps 755 mmHg 24%
    10:00 +30°C° 0 mm 6 mps 755 mmHg 19%
    11:00 +33°C° 0 mm 6 mps 754 mmHg 18%
    12:00 +34°C° 0 mm 5 mps 752 mmHg 16%
    13:00 +35°C° 0 mm 5 mps 751 mmHg 15%
    14:00 +36°C° 0 mm 6 mps 751 mmHg 15%
    15:00 +36°C° 0 mm 6 mps 750 mmHg 15%
    16:00 +38°C° 0 mm 6 mps 749 mmHg 15%
    17:00 +35°C° 0 mm 5 mps 748 mmHg 17%
    18:00 +34°C° 0 mm 5 mps 747 mmHg 19%
    19:00 +32°C° 0 mm 4 mps 747 mmHg 21%
    20:00 +30°C° 0 mm 5 mps 747 mmHg 21%
    21:00 +29°C° 0 mm 6 mps 747 mmHg 22%
    22:00 +29°C° 0 mm 7 mps 748 mmHg 23%
    23:00 +24°C° 0 mm 7 mps 749 mmHg 37%
    Show more